SCP
-0 -0 -0 -0 -0 -0 -0 -0 -0 0 0 0 0 0 0 -0 -0 0 0 0 0 0 0 0 0 0 0 0 0 0 0 0 0 0 0 0 0 0 0 0 0 0 0 0 0
-0 -0 -0 -0 -0 -0 -0 -0 -0 -0 0 0 0 0 0 -0 0 0 0 0 0 0 0 0 0 0 0 0 0 0 0 0 0 0 0 0 0 0 0 0 0 0 0 0 0
-0 -0 -0 -0 -0 -0 -0 -0 -0 -0 0 0 0 0 0 0 0 0 0 0 0 0 0 0 0 0 0 0 0 0 0 0 0 0 0 0 0 0 0 0 0 0 0 0 0
0 0 -0 -0 -0 -0 -0 -0 -0 -0 0 0 0 0 0 0 0 0 0 0 0 0 0 0 0 0 0 0 0 0 0 0 0 0 0 0 0 0 0 0 0 0 0 0 0
0 0 0 -0 -0 -0 -0 -0 -0 -0 0 0 0 0 0 0 0 0 -0 0 0 0 0 0 0 0 0 0 0 0 0 0 0 0 0 0 0 0 0 0 0 0 0 0 0
0 0 0 0 -0 -0 -0 -0 -0 -0 0 0 0 0 0 0 0 0 0 0 0 0 0 0 0 0 0 0 0 0 0 0 0 0 0 0 0 0 0 0 0 0 0 0 0
0 0 0 0 0 -0 -0 -0 -0 0 -0 0 0 0 0 0 0 0 0 0 0 0 0 0 0 0 0 0 0 0 0 0 0 0 0 0 0 0 0 0 0 0 0 0 0
0 0 0 0 0 0 -0 -0 0 0 -0 0 0 0 0 0 0 0 0 0 0 0 0 0 0 0 0 0 0 0 0 0 0 0 0 0 0 0 0 0 0 0 0 0 0
0 0 0 0 0 0 0 -0 0 -0 0 0 0 0 0 0 0 0 0 0 0 0 0 0 0 0 0 0 0 0 0 0 0 0 0 0 0 0 0 0 0 0 0 0 0
0 0 0 0 0 0 0 0 -0 0 0 0 0 0 0 0 0 0 0 0 0 0 0 0 0 0 0 0 0 0 0 0 0 0 0 0 0 0 0 0 0 0 0 0 0
0 0 0 0 0 0 0 -0 -0 0 0 0 0 0 0 0 0 0 0 0 0 0 0 0 0 0 0 0 0 0 0 0 0 0 0 0 0 0 0 0 0 0 0 0 0
0 0 0 0 0 0 0 -0 -0 0 0 0 0 0 0 0 0 0 0 0 0 0 0 0 0 0 0 0 0 0 0 0 0 0 0 0 0 0 0 0 0 0 0 0 0
0 0 0 0 0 0 0 0 0 0 0 0 0 0 0 0 0 0 0 0 0 0 0 0 0 0 0 0 0 0 0 0 0 0 0 0 0 0 0 0 0 0 0 0 0
0 0 0 0 0 0 0 0 0 0 0 0 0 0 0 0 0 0 0 0 0 0 0 0 0 0 0 0 0 0 0 0 0 0 0 0 0 0 0 0 0 0 0 0 0
0 0 0 0 0 0 0 0 0 0 0 0 0 0 0 0 0 0 0 0 0 0 0 0 0 0 0 0 0 0 0 0 0 0 0 0 0 0 0 0 0 0 0 0 0
0 0 0 0 0 0 0 0 0 0 0 0 0 0 0 0 0 0 0 0 0 0 0 0 0 0 0 0 0 0 0 0 0 0 0 0 0 0 0 0 0 0 0 0 0
0 0 0 0 0 0 0 0 0 0 0 0 0 0 0 0 0 0 0 0 0 0 0 0 0 0 0 0 0 0 0 0 0 0 0 0 0 0 0 0 0 0 0 0 0
0 0 0 0 0 0 0 0 0 0 0 0 0 0 0 0 0 0 0 0 0 0 0 0 0 0 0 0 0 0 0 0 0 0 0 0 0 0 0 0 0 0 0 0 0
0 0 0 0 0 0 0 0 0 0 0 0 0 0 0 0 0 0 0 0 0 0 0 0 0 0 0 0 0 0 0 0 0 0 0 0 0 0 0 0 0 0 0 0 0
0 0 0 0 0 0 0 0 0 0 0 0 0 0 0 0 0 0 0 0 0 0 0 0 0 0 0 0 0 0 0 0 0 0 0 0 0 0 0 0 0 0 0 0 0
0 0 0 0 0 0 0 0 0 0 0 0 0 0 0 0 0 0 0 0 0 0 0 0 0 0 0 0 0 0 0 0 0 0 0 0 0 0 0 0 0 0 0 0 0
0 0 0 0 0 0 0 0 0 0 0 0 0 0 0 0 0 0 0 0 0 0 0 0 0 0 0 0 0 0 0 0 0 0 0 0 0 0 0 0 0 0 0 0 0
0 0 0 0 0 0 0 0 0 0 0 0 0 0 0 0 0 0 0 0 0 0 0 0 0 0 0 0 0 0 0 0 0 0 0 0 0 0 0 0 0 0 0 0 0
0 0 0 0 0 0 0 0 0 0 0 0 0 0 0 0 0 0 0 0 0 0 0 0 0 0 0 0 0 0 0 0 0 0 0 0 0 0 0 0 0 0 0 0 0
0 0 0 0 0 0 0 0 0 0 0 0 0 0 0 0 0 0 0 0 0 0 0 0 0 0 0 0 0 0 0 0 0 0 0 0 0 0 0 0 0 0 0 0 0
0 0 0 0 0 0 0 0 0 0 0 0 0 0 0 0 0 0 0 0 0 0 0 0 0 0 0 0 0 0 0 0 0 0 0 0 0 0 0 0 0 0 0 0 0
0 0 0 0 0 0 0 0 0 0 0 0 0 0 0 0 0 0 0 0 0 0 0 0 0 0 0 0 0 0 0 0 0 0 0 0 0 0 0 0 0 0 0 0 0
Wind_Speed_500mb
24 28 31 35 39 41 43 45 48 52 53 56 54 34 16 22 34 25 27 21 16 15 12 10 9 15 7 8 8 3 7 5 5 7 7 9 6 24 31 49 49 29 34 21 10
24 26 28 32 35 38 40 43 45 50 52 55 50 31 5 8 18 32 27 22 17 19 19 19 17 13 4 2 7 8 5 2 2 4 4 4 9 10 11 22 27 44 30 13 16
24 27 29 30 32 35 37 39 42 46 50 54 48 25 7 3 6 19 24 22 19 21 23 21 18 15 8 1 2 5 5 4 7 14 10 4 12 5 34 9 10 32 30 22 20
25 27 29 30 31 33 34 35 38 42 48 53 46 17 11 6 3 9 17 23 18 18 23 18 17 7 5 2 3 4 15 2 7 13 5 3 10 12 7 22 29 28 23 16 20
25 27 29 30 31 31 32 33 36 40 46 50 42 14 2 5 5 5 7 17 19 18 17 21 21 13 5 9 5 7 7 7 11 5 2 6 17 20 36 35 26 23 17 16 18
23 25 29 31 32 32 31 33 35 38 42 45 35 11 1 3 2 3 4 5 16 19 20 18 14 13 9 7 4 6 11 20 9 8 9 8 22 19 27 32 27 20 22 20 21
25 27 28 32 34 34 34 34 37 39 38 38 27 5 5 7 5 2 7 5 14 17 22 16 16 11 11 9 4 2 7 6 11 11 8 8 5 10 49 35 35 30 27 23 21
27 29 30 31 36 38 38 38 39 38 38 21 20 5 5 9 10 2 8 9 13 15 20 14 16 12 4 13 8 3 3 2 8 16 8 6 10 13 53 47 38 31 23 17 13
30 31 32 32 35 40 43 44 42 39 23 17 10 7 5 9 15 13 9 12 16 11 17 10 15 5 3 4 9 7 6 6 7 16 5 6 9 28 54 47 40 32 25 15 11
32 32 32 33 34 40 45 48 40 23 3 17 3 7 8 8 11 14 15 11 10 13 11 7 1 5 7 7 7 7 9 8 9 6 12 13 12 16 54 48 42 35 27 16 11
36 33 32 32 32 38 45 46 33 7 29 21 31 30 33 31 19 14 9 9 3 3 4 9 5 10 9 2 2 7 9 13 16 8 10 13 13 26 40 41 42 39 30 18 10
37 35 32 29 29 29 29 19 16 16 25 36 33 33 32 18 7 11 7 4 3 2 7 11 13 11 13 10 9 11 13 16 15 8 1 11 20 15 45 41 50 43 30 22 11
36 35 31 27 24 22 18 18 22 23 11 12 7 8 6 13 7 12 6 2 4 4 3 8 7 10 7 5 7 10 11 9 14 11 13 14 15 14 11 29 45 38 28 19 9
35 34 31 23 20 8 13 16 21 25 8 11 5 4 7 6 5 10 4 3 3 3 4 11 4 8 6 9 12 11 5 4 9 9 8 4 18 7 19 24 26 44 35 21 11
38 33 30 20 14 14 11 11 17 9 8 8 5 5 7 7 1 3 2 2 7 10 10 19 9 11 10 10 10 11 3 9 10 18 6 12 9 11 24 24 24 29 29 18 9
41 35 31 22 21 17 12 9 9 9 13 7 8 6 2 7 5 5 1 1 1 2 6 17 0 10 13 5 5 4 6 11 8 3 7 18 22 8 14 27 29 31 30 20 8
42 37 32 27 18 16 12 6 8 8 6 9 9 9 6 9 7 8 5 0 2 9 7 10 9 3 6 5 6 4 7 9 10 4 14 3 3 27 14 14 36 31 35 20 6
41 33 32 32 26 23 18 7 11 13 15 4 6 6 12 15 7 6 8 5 9 7 2 7 12 12 8 8 12 12 13 9 13 8 19 11 15 9 3 35 51 41 33 19 5
37 29 38 34 31 28 24 8 20 18 10 16 4 7 8 7 6 7 13 12 14 17 16 5 11 4 7 1 7 5 9 4 3 3 5 9 9 6 4 13 25 35 29 17 4
29 25 38 32 33 33 6 29 16 18 11 8 18 17 15 12 11 13 14 11 10 10 10 7 14 0 4 4 6 5 5 5 3 7 13 12 16 18 23 26 16 18 22 7 12
27 15 19 36 37 27 15 20 25 36 18 16 16 12 12 12 17 14 14 7 11 8 11 10 11 5 9 14 18 2 7 7 5 9 9 5 12 8 34 30 22 19 20 8 8
29 8 22 46 18 15 26 17 21 25 70 34 15 19 21 14 12 15 23 21 34 29 19 15 10 10 23 8 5 7 19 20 11 13 10 23 40 13 24 22 32 31 23 12 9
21 33 20 56 16 21 10 19 42 15 28 12 17 20 17 18 12 24 28 8 45 24 21 17 8 4 14 6 6 11 11 12 6 1 39 22 20 4 20 19 34 33 26 16 9
22 8 24 55 41 12 21 31 30 35 57 31 16 20 11 13 20 11 14 6 16 14 22 26 11 19 36 39 7 16 17 18 28 21 47 50 69 24 17 20 23 29 26 17 6
42 18 30 14 30 37 25 14 38 28 28 60 25 43 26 25 17 27 13 3 4 14 15 15 21 16 38 29 9 37 29 30 37 52 36 75 48 52 35 32 37 38 23 2 18
45 19 28 13 38 44 55 58 50 18 28 39 44 26 48 54 40 24 31 16 20 8 14 8 12 7 29 16 30 50 37 39 51 60 55 65 71 53 36 26 33 24 13 6 21
81 64 57 34 20 26 42 56 55 44 39 41 48 41 39 45 60 65 49 29 21 26 28 21 12 9 29 0 6 28 44 58 49 49 48 49 69 43 25 18 29 24 3 13 16
Wind_Direction_500mb
12 13 13 12 12 10 11 12 10 11 11 12 11 20 72 69 55 58 54 45 52 49 48 45 36 20 9 18 17 30 65 318 359 61 119 58 106 74 89 87 75 86 88 89 23
2 2 6 6 5 3 5 7 6 7 6 7 7 12 59 50 43 39 38 37 38 32 27 24 25 22 340 330 6 61 88 264 19 71 106 68 115 116 92 99 86 91 90 68 33
355 354 356 359 359 358 359 1 3 2 1 2 4 12 58 85 54 25 34 30 35 35 31 35 24 357 329 258 3 357 208 333 54 91 52 14 61 97 126 56 106 116 101 77 47
344 348 349 352 354 355 354 355 358 358 356 356 0 20 70 48 87 33 42 39 43 30 27 26 14 3 324 250 162 4 269 344 360 30 50 6 97 84 76 122 129 121 110 92 55
332 338 340 344 347 350 350 349 351 352 351 349 357 18 70 54 94 62 57 40 37 26 21 20 19 350 351 338 337 181 268 280 312 337 20 323 143 126 120 140 141 121 100 75 50
320 326 331 335 338 342 345 344 344 344 342 342 348 3 258 284 268 23 14 13 20 19 18 7 1 332 281 263 145 314 301 286 297 190 178 138 138 105 162 143 123 111 94 77 55
312 316 320 326 330 334 337 341 340 339 334 331 338 313 274 267 203 31 29 12 5 360 360 349 347 325 318 319 308 253 318 5 213 199 220 179 215 156 155 149 132 124 115 99 70
300 308 313 318 322 326 330 334 336 334 327 325 331 297 257 245 211 300 6 6 349 348 347 337 329 313 256 313 314 316 149 129 254 170 236 135 262 164 158 152 145 141 136 127 77
292 298 307 315 320 322 327 330 335 327 320 323 314 290 241 234 239 261 312 342 341 345 332 327 320 345 349 48 357 1 283 294 328 215 155 163 243 175 173 161 155 150 144 136 87
287 294 303 312 320 323 327 333 338 323 342 345 286 300 238 229 256 269 291 325 343 348 331 322 306 44 19 74 250 278 303 301 269 237 202 200 243 168 180 169 166 157 150 138 96
290 294 300 309 320 327 331 347 1 306 314 274 281 262 271 271 257 255 273 316 52 35 354 278 66 259 212 140 223 255 258 254 267 247 187 231 248 190 185 177 170 167 160 153 99
288 291 296 306 317 328 339 10 2 317 303 288 268 264 262 255 248 220 259 197 127 242 325 10 248 198 170 204 226 235 263 273 282 168 338 257 253 245 185 187 175 168 167 164 133
279 285 291 299 309 315 343 350 340 340 299 294 253 244 231 210 218 216 232 204 160 171 177 190 222 163 177 207 239 252 231 253 255 328 300 283 272 207 193 173 180 174 176 150 127
273 277 282 290 300 291 324 330 329 343 46 270 241 216 190 205 262 206 180 149 212 255 198 238 213 164 188 244 176 264 176 229 280 350 248 126 290 198 175 184 184 183 175 154 133
269 268 270 268 253 281 292 303 316 351 4 255 202 186 205 193 259 189 197 57 183 196 108 247 193 204 216 225 156 242 43 249 254 249 357 237 255 256 163 205 196 182 166 148 143
262 259 256 256 252 252 250 268 314 54 250 234 165 189 156 200 217 167 172 30 244 25 247 248 139 175 204 135 184 16 306 265 222 169 260 240 207 234 180 218 175 171 160 153 151
259 257 247 238 236 227 213 211 39 161 268 208 204 178 179 200 203 170 160 320 164 336 305 333 218 100 132 127 17 74 49 320 339 338 238 209 286 245 221 198 172 160 156 154 146
257 258 244 233 224 220 204 67 191 226 240 130 148 149 192 165 215 145 122 251 247 169 325 229 302 175 173 189 185 191 165 170 260 242 284 335 256 245 126 120 136 144 148 150 152
247 246 253 229 221 212 191 194 196 201 216 160 89 183 236 214 189 144 205 213 218 169 185 239 258 95 37 28 145 191 186 166 278 135 4 242 275 344 158 133 139 146 153 161 193
231 235 248 227 215 207 160 224 219 219 144 156 184 180 205 200 175 181 194 204 205 183 168 198 291 188 157 63 310 211 181 71 77 289 275 268 264 237 193 198 179 167 163 182 335
215 247 233 217 205 190 207 217 225 227 168 175 205 229 218 189 190 199 222 249 165 133 122 151 168 211 126 199 188 137 235 230 190 173 233 293 248 233 195 185 183 175 171 212 289
204 229 206 192 180 210 222 200 226 207 235 245 206 218 226 170 246 232 227 203 173 154 163 206 172 225 224 213 206 175 202 191 210 228 238 252 271 182 185 162 167 172 189 211 256
214 225 210 187 216 219 244 220 232 177 220 205 222 215 199 202 246 226 234 178 169 156 171 181 214 335 294 15 342 220 206 213 259 288 242 247 259 87 131 147 173 181 196 197 284
200 216 189 200 226 219 221 242 225 221 230 237 232 192 164 224 223 257 199 226 200 169 170 165 204 198 254 268 134 234 193 204 215 244 253 241 258 238 186 177 191 191 194 200 275
205 223 194 204 215 224 216 228 220 225 213 206 239 224 206 234 205 228 206 146 274 186 176 168 242 198 256 274 270 263 248 216 218 235 233 258 246 257 244 219 198 191 181 314 342
204 193 176 210 202 203 221 233 233 219 201 218 225 201 218 229 218 231 219 185 205 172 168 180 252 145 271 237 246 259 248 244 238 243 245 252 267 258 271 185 161 174 171 341 345
221 224 215 215 194 195 217 227 228 217 246 232 213 225 225 225 228 240 234 225 206 170 186 169 192 158 258 227 340 274 238 229 241 242 231 242 246 275 248 174 172 166 155 348 343
Wind_Speed_850mb
24 28 31 35 39 41 43 45 48 52 53 56 54 34 16 22 34 25 27 21 16 15 12 10 9 15 7 8 8 3 7 5 5 7 7 9 6 24 31 49 49 29 34 21 10
24 26 28 32 35 38 40 43 45 50 52 55 50 31 5 8 18 32 27 22 17 19 19 19 17 13 4 2 7 8 5 2 2 4 4 4 9 10 11 22 27 44 30 13 16
24 27 29 30 32 35 37 39 42 46 50 54 48 25 7 3 6 19 24 22 19 21 23 21 18 15 8 1 2 5 5 4 7 14 10 4 12 5 34 9 10 32 30 22 20
25 27 29 30 31 33 34 35 38 42 48 53 46 17 11 6 3 9 17 23 18 18 23 18 17 7 5 2 3 4 15 2 7 13 5 3 10 12 7 22 29 28 23 16 20
25 27 29 30 31 31 32 33 36 40 46 50 42 14 2 5 5 5 7 17 19 18 17 21 21 13 5 9 5 7 7 7 11 5 2 6 17 20 36 35 26 23 17 16 18
23 25 29 31 32 32 31 33 35 38 42 45 35 11 1 3 2 3 4 5 16 19 20 18 14 13 9 7 4 6 11 20 9 8 9 8 22 19 27 32 27 20 22 20 21
25 27 28 32 34 34 34 34 37 39 38 38 27 5 5 7 5 2 7 5 14 17 22 16 16 11 11 9 4 2 7 6 11 11 8 8 5 10 49 35 35 30 27 23 21
27 29 30 31 36 38 38 38 39 38 38 21 20 5 5 9 10 2 8 9 13 15 20 14 16 12 4 13 8 3 3 2 8 16 8 6 10 13 53 47 38 31 23 17 13
30 31 32 32 35 40 43 44 42 39 23 17 10 7 5 9 15 13 9 12 16 11 17 10 15 5 3 4 9 7 6 6 7 16 5 6 9 28 54 47 40 32 25 15 11
32 32 32 33 34 40 45 48 40 23 3 17 3 7 8 8 11 14 15 11 10 13 11 7 1 5 7 7 7 7 9 8 9 6 12 13 12 16 54 48 42 35 27 16 11
36 33 32 32 32 38 45 46 33 7 29 21 31 30 33 31 19 14 9 9 3 3 4 9 5 10 9 2 2 7 9 13 16 8 10 13 13 26 40 41 42 39 30 18 10
37 35 32 29 29 29 29 19 16 16 25 36 33 33 32 18 7 11 7 4 3 2 7 11 13 11 13 10 9 11 13 16 15 8 1 11 20 15 45 41 50 43 30 22 11
36 35 31 27 24 22 18 18 22 23 11 12 7 8 6 13 7 12 6 2 4 4 3 8 7 10 7 5 7 10 11 9 14 11 13 14 15 14 11 29 45 38 28 19 9
35 34 31 23 20 8 13 16 21 25 8 11 5 4 7 6 5 10 4 3 3 3 4 11 4 8 6 9 12 11 5 4 9 9 8 4 18 7 19 24 26 44 35 21 11
38 33 30 20 14 14 11 11 17 9 8 8 5 5 7 7 1 3 2 2 7 10 10 19 9 11 10 10 10 11 3 9 10 18 6 12 9 11 24 24 24 29 29 18 9
41 35 31 22 21 17 12 9 9 9 13 7 8 6 2 7 5 5 1 1 1 2 6 17 0 10 13 5 5 4 6 11 8 3 7 18 22 8 14 27 29 31 30 20 8
42 37 32 27 18 16 12 6 8 8 6 9 9 9 6 9 7 8 5 0 2 9 7 10 9 3 6 5 6 4 7 9 10 4 14 3 3 27 14 14 36 31 35 20 6
41 33 32 32 26 23 18 7 11 13 15 4 6 6 12 15 7 6 8 5 9 7 2 7 12 12 8 8 12 12 13 9 13 8 19 11 15 9 3 35 51 41 33 19 5
37 29 38 34 31 28 24 8 20 18 10 16 4 7 8 7 6 7 13 12 14 17 16 5 11 4 7 1 7 5 9 4 3 3 5 9 9 6 4 13 25 35 29 17 4
29 25 38 32 33 33 6 29 16 18 11 8 18 17 15 12 11 13 14 11 10 10 10 7 14 0 4 4 6 5 5 5 3 7 13 12 16 18 23 26 16 18 22 7 12
27 15 19 36 37 27 15 20 25 36 18 16 16 12 12 12 17 14 14 7 11 8 11 10 11 5 9 14 18 2 7 7 5 9 9 5 12 8 34 30 22 19 20 8 8
29 8 22 46 18 15 26 17 21 25 70 34 15 19 21 14 12 15 23 21 34 29 19 15 10 10 23 8 5 7 19 20 11 13 10 23 40 13 24 22 32 31 23 12 9
21 33 20 56 16 21 10 19 42 15 28 12 17 20 17 18 12 24 28 8 45 24 21 17 8 4 14 6 6 11 11 12 6 1 39 22 20 4 20 19 34 33 26 16 9
22 8 24 55 41 12 21 31 30 35 57 31 16 20 11 13 20 11 14 6 16 14 22 26 11 19 36 39 7 16 17 18 28 21 47 50 69 24 17 20 23 29 26 17 6
42 18 30 14 30 37 25 14 38 28 28 60 25 43 26 25 17 27 13 3 4 14 15 15 21 16 38 29 9 37 29 30 37 52 36 75 48 52 35 32 37 38 23 2 18
45 19 28 13 38 44 55 58 50 18 28 39 44 26 48 54 40 24 31 16 20 8 14 8 12 7 29 16 30 50 37 39 51 60 55 65 71 53 36 26 33 24 13 6 21
81 64 57 34 20 26 42 56 55 44 39 41 48 41 39 45 60 65 49 29 21 26 28 21 12 9 29 0 6 28 44 58 49 49 48 49 69 43 25 18 29 24 3 13 16
Wind_Direction_850mb
12 13 13 12 12 10 11 12 10 11 11 12 11 20 72 69 55 58 54 45 52 49 48 45 36 20 9 18 17 30 65 318 359 61 119 58 106 74 89 87 75 86 88 89 23
2 2 6 6 5 3 5 7 6 7 6 7 7 12 59 50 43 39 38 37 38 32 27 24 25 22 340 330 6 61 88 264 19 71 106 68 115 116 92 99 86 91 90 68 33
355 354 356 359 359 358 359 1 3 2 1 2 4 12 58 85 54 25 34 30 35 35 31 35 24 357 329 258 3 357 208 333 54 91 52 14 61 97 126 56 106 116 101 77 47
344 348 349 352 354 355 354 355 358 358 356 356 0 20 70 48 87 33 42 39 43 30 27 26 14 3 324 250 162 4 269 344 360 30 50 6 97 84 76 122 129 121 110 92 55
332 338 340 344 347 350 350 349 351 352 351 349 357 18 70 54 94 62 57 40 37 26 21 20 19 350 351 338 337 181 268 280 312 337 20 323 143 126 120 140 141 121 100 75 50
320 326 331 335 338 342 345 344 344 344 342 342 348 3 258 284 268 23 14 13 20 19 18 7 1 332 281 263 145 314 301 286 297 190 178 138 138 105 162 143 123 111 94 77 55
312 316 320 326 330 334 337 341 340 339 334 331 338 313 274 267 203 31 29 12 5 360 360 349 347 325 318 319 308 253 318 5 213 199 220 179 215 156 155 149 132 124 115 99 70
300 308 313 318 322 326 330 334 336 334 327 325 331 297 257 245 211 300 6 6 349 348 347 337 329 313 256 313 314 316 149 129 254 170 236 135 262 164 158 152 145 141 136 127 77
292 298 307 315 320 322 327 330 335 327 320 323 314 290 241 234 239 261 312 342 341 345 332 327 320 345 349 48 357 1 283 294 328 215 155 163 243 175 173 161 155 150 144 136 87
287 294 303 312 320 323 327 333 338 323 342 345 286 300 238 229 256 269 291 325 343 348 331 322 306 44 19 74 250 278 303 301 269 237 202 200 243 168 180 169 166 157 150 138 96
290 294 300 309 320 327 331 347 1 306 314 274 281 262 271 271 257 255 273 316 52 35 354 278 66 259 212 140 223 255 258 254 267 247 187 231 248 190 185 177 170 167 160 153 99
288 291 296 306 317 328 339 10 2 317 303 288 268 264 262 255 248 220 259 197 127 242 325 10 248 198 170 204 226 235 263 273 282 168 338 257 253 245 185 187 175 168 167 164 133
279 285 291 299 309 315 343 350 340 340 299 294 253 244 231 210 218 216 232 204 160 171 177 190 222 163 177 207 239 252 231 253 255 328 300 283 272 207 193 173 180 174 176 150 127
273 277 282 290 300 291 324 330 329 343 46 270 241 216 190 205 262 206 180 149 212 255 198 238 213 164 188 244 176 264 176 229 280 350 248 126 290 198 175 184 184 183 175 154 133
269 268 270 268 253 281 292 303 316 351 4 255 202 186 205 193 259 189 197 57 183 196 108 247 193 204 216 225 156 242 43 249 254 249 357 237 255 256 163 205 196 182 166 148 143
262 259 256 256 252 252 250 268 314 54 250 234 165 189 156 200 217 167 172 30 244 25 247 248 139 175 204 135 184 16 306 265 222 169 260 240 207 234 180 218 175 171 160 153 151
259 257 247 238 236 227 213 211 39 161 268 208 204 178 179 200 203 170 160 320 164 336 305 333 218 100 132 127 17 74 49 320 339 338 238 209 286 245 221 198 172 160 156 154 146
257 258 244 233 224 220 204 67 191 226 240 130 148 149 192 165 215 145 122 251 247 169 325 229 302 175 173 189 185 191 165 170 260 242 284 335 256 245 126 120 136 144 148 150 152
247 246 253 229 221 212 191 194 196 201 216 160 89 183 236 214 189 144 205 213 218 169 185 239 258 95 37 28 145 191 186 166 278 135 4 242 275 344 158 133 139 146 153 161 193
231 235 248 227 215 207 160 224 219 219 144 156 184 180 205 200 175 181 194 204 205 183 168 198 291 188 157 63 310 211 181 71 77 289 275 268 264 237 193 198 179 167 163 182 335
215 247 233 217 205 190 207 217 225 227 168 175 205 229 218 189 190 199 222 249 165 133 122 151 168 211 126 199 188 137 235 230 190 173 233 293 248 233 195 185 183 175 171 212 289
204 229 206 192 180 210 222 200 226 207 235 245 206 218 226 170 246 232 227 203 173 154 163 206 172 225 224 213 206 175 202 191 210 228 238 252 271 182 185 162 167 172 189 211 256
214 225 210 187 216 219 244 220 232 177 220 205 222 215 199 202 246 226 234 178 169 156 171 181 214 335 294 15 342 220 206 213 259 288 242 247 259 87 131 147 173 181 196 197 284
200 216 189 200 226 219 221 242 225 221 230 237 232 192 164 224 223 257 199 226 200 169 170 165 204 198 254 268 134 234 193 204 215 244 253 241 258 238 186 177 191 191 194 200 275
205 223 194 204 215 224 216 228 220 225 213 206 239 224 206 234 205 228 206 146 274 186 176 168 242 198 256 274 270 263 248 216 218 235 233 258 246 257 244 219 198 191 181 314 342
204 193 176 210 202 203 221 233 233 219 201 218 225 201 218 229 218 231 219 185 205 172 168 180 252 145 271 237 246 259 248 244 238 243 245 252 267 258 271 185 161 174 171 341 345
221 224 215 215 194 195 217 227 228 217 246 232 213 225 225 225 228 240 234 225 206 170 186 169 192 158 258 227 340 274 238 229 241 242 231 242 246 275 248 174 172 166 155 348 343